Weather History for Muncie, IN

Change the Weather History Date:

Saturday, July 27, 2013

  Actual Average Record
Temperature  
Mean Temperature 66 °F 74 °F  
Max Temperature 77 °F 84 °F 94 °F (1966)
Min Temperature 55 °F 64 °F 32 °F (1997)
Degree Days  
Heating Degree Days 0 0  
Month to date heating degree days 4 0  
Since 1 June heating degree days 18 24  
Since 1 July heating degree days 4 0  
Cooling Degree Days 1 9  
Month to date cooling degree days 222 261  
Year to date cooling degree days 596 560  
Since 1 June cooling degree days 428 477  
Growing Degree Days 17 (Base 50)    
Moisture  
Dew Point 59 °F    
Average Humidity 70    
Maximum Humidity 93    
Minimum Humidity 46    
Precipitation  
Precipitation 0.07 in 0.12 in 0.68 in (1969)
Month to date precipitation 1.63 3.88  
Year to date precipitation 22.42 24.11  
Sea Level Pressure  
Sea Level Pressure 29.87 in    
Wind  
Wind Speed 9 mph (WSW)    
Max Wind Speed 20 mph    
Max Gust Speed 28 mph    
Visibility 8 miles    
Events Rain    
T = Trace of Precipitation, MM = Missing Value Source: NWS Daily Summary

Daily Weather History Graph

Daily Weather History Graph

Search for Another Location

Airport:

Trip Planner

Search our weather history database for the weather conditions in past years. The results will help you decide how hot, cold, wet, or windy it might be!

Date:

Astronomy

Jul. 27, 2013 Rise Set
Actual Time 6:35 AM EDT 9:00 PM EDT
Civil Twilight 6:04 AM EDT 9:31 PM EDT
Nautical Twilight 5:25 AM EDT 10:09 PM EDT
Astronomical Twilight 4:43 AM EDT 10:51 PM EDT
Moon 11:46 PM EDT (7/27) 12:15 PM EDT (7/27)
Length of Visible Light 15h 27m
Length of Day
14h 25m
Waning Gibbous, 71% of the Moon is Illuminated
Jul 27
Waning Gibbous
Jul 29
Last Quarter
Aug 6
New
Aug 14
First Quarter
Aug 20
Full

Hourly Weather History & Observations

Time (EDT) Temp. Dew Point Humidity Pressure Visibility Wind Dir Wind Speed Gust Speed Precip Events Conditions
12:53 AM 70.0 °F 60.1 °F 71% 29.93 in 10.0 mi SSW 6.9 mph - N/A   Overcast
1:53 AM 66.0 °F 62.1 °F 87% 29.92 in 4.0 mi SSW 8.1 mph - 0.02 in Rain Light Rain
2:53 AM 66.0 °F 63.0 °F 90% 29.90 in 9.0 mi SSW 6.9 mph - 0.01 in   Overcast
3:53 AM 66.0 °F 63.0 °F 90% 29.88 in 9.0 mi South 5.8 mph - N/A   Overcast
4:29 AM 66.2 °F 62.6 °F 88% 29.91 in 10.0 mi South 5.8 mph - N/A   Overcast
4:53 AM 66.0 °F 63.0 °F 90% 29.88 in 8.0 mi SW 6.9 mph - 0.03 in Rain Light Rain
5:29 AM 66.2 °F 62.6 °F 88% 29.90 in 7.0 mi SSW 8.1 mph - 0.00 in   Overcast
5:53 AM 66.0 °F 64.0 °F 93% 29.86 in 7.0 mi SSW 6.9 mph - 0.00 in   Overcast
6:53 AM 66.0 °F 63.0 °F 90% 29.88 in 10.0 mi SW 6.9 mph - N/A   Overcast
7:53 AM 64.9 °F 63.0 °F 93% 29.87 in 2.5 mi SW 9.2 mph - N/A   Overcast
8:32 AM 64.4 °F 62.6 °F 94% 29.89 in 3.0 mi SW 6.9 mph - 0.01 in Rain Light Rain
8:53 AM 64.9 °F 63.0 °F 93% 29.87 in 5.0 mi WSW 8.1 mph - 0.01 in   Overcast
9:53 AM 66.0 °F 64.0 °F 93% 29.87 in 5.0 mi SSW 8.1 mph - N/A   Overcast
10:53 AM 69.1 °F 64.0 °F 84% 29.86 in 8.0 mi SW 9.2 mph - N/A   Mostly Cloudy
10:57 AM 69.8 °F 64.4 °F 83% 29.88 in 8.0 mi SW 10.4 mph 16.1 mph N/A   Mostly Cloudy
11:15 AM 71.6 °F 64.4 °F 78% 29.87 in 10.0 mi SW 9.2 mph - N/A   Mostly Cloudy
11:53 AM 71.1 °F 62.1 °F 73% 29.85 in 10.0 mi West 9.2 mph - N/A   Mostly Cloudy
12:53 PM 75.0 °F 57.9 °F 55% 29.84 in 10.0 mi West 15.0 mph 20.7 mph N/A   Partly Cloudy
1:53 PM 75.0 °F 55.0 °F 50% 29.84 in 10.0 mi West 12.7 mph 20.7 mph N/A   Scattered Clouds
2:53 PM 77.0 °F 55.0 °F 47% 29.84 in 10.0 mi West 13.8 mph 23.0 mph N/A   Mostly Cloudy
3:53 PM 75.9 °F 54.0 °F 46% 29.82 in 10.0 mi West 15.0 mph 20.7 mph N/A   Partly Cloudy
4:53 PM 75.9 °F 54.0 °F 46% 29.82 in 10.0 mi West 11.5 mph 27.6 mph N/A   Partly Cloudy
5:53 PM 73.0 °F 53.1 °F 49% 29.82 in 10.0 mi West 12.7 mph 20.7 mph N/A   Mostly Cloudy
6:53 PM 72.0 °F 54.0 °F 53% 29.83 in 10.0 mi West 11.5 mph - N/A   Partly Cloudy
7:53 PM 69.1 °F 52.0 °F 54% 29.86 in 10.0 mi NW 13.8 mph 25.3 mph N/A   Clear
8:53 PM 64.9 °F 50.0 °F 58% 29.87 in 10.0 mi NW 9.2 mph - N/A   Clear
9:53 PM 61.0 °F 51.1 °F 70% 29.90 in 10.0 mi WNW 4.6 mph - N/A   Partly Cloudy
10:53 PM 57.9 °F 51.1 °F 78% 29.91 in 10.0 mi NW 5.8 mph - N/A   Clear
11:53 PM 57.0 °F 51.1 °F 81% 29.92 in 10.0 mi Calm Calm - N/A   Clear